Weather History for Sylvania, GA

Change the Weather History Date:

Sunday, December 9, 2012

  Actual Average (KSAV) Record (KSAV)
Temperature  
Mean Temperature 66 °F 53 °F  
Max Temperature 76 °F 64 °F 82 °F (1978)
Min Temperature 57 °F 42 °F 20 °F (1968)
Degree Days  
Heating Degree Days 0 12  
Month to date heating degree days 104  
Since 1 July heating degree days 371  
Cooling Degree Days 1 0  
Month to date cooling degree days 3  
Year to date cooling degree days 2452  
Growing Degree Days 16 (Base 50)    
Moisture  
Dew Point 64 °F    
Average Humidity 94    
Maximum Humidity 100    
Minimum Humidity 77    
Precipitation  
Precipitation 0.00 in 0.09 in 2.44 in (1885)
Month to date precipitation 0.79  
Year to date precipitation 45.80  
Sea Level Pressure  
Sea Level Pressure 30.08 in    
Wind  
Wind Speed 0 mph (SSW)    
Max Wind Speed 6 mph    
Max Gust Speed -    
Visibility 6 miles    
Events Fog    
T = Trace of Precipitation, MM = Missing Value Source: NWS Daily Summary

Daily Weather History Graph

Daily Weather History Graph

Search for Another Location

Airport:

Trip Planner

Search our weather history database for the weather conditions in past years. The results will help you decide how hot, cold, wet, or windy it might be!

Date:

Astronomy

Dec. 09, 2012 Rise Set
Actual Time 7:17 AM EST 5:20 PM EST
Civil Twilight 6:50 AM EST 5:47 PM EST
Nautical Twilight 6:19 AM EST 6:18 PM EST
Astronomical Twilight 5:49 AM EST 6:48 PM EST
Moon 2:58 AM EST (12/9) 2:18 PM EST (12/9)
Length of Visible Light 10h 57m
Length of Day
10h 03m
Waning Crescent, 19% of the Moon is Illuminated
Dec 9
Waning Crescent
Dec 13
New
Dec 20
First Quarter
Dec 28
Full
Jan 4
Last Quarter

Hourly Weather History & Observations

Time (EST) Temp. Dew Point Humidity Pressure Visibility Wind Dir Wind Speed Gust Speed Precip Events Conditions
12:15 AM 57.2 °F 57.2 °F 100% 30.09 in 7.0 mi Calm Calm - N/A   Scattered Clouds
12:35 AM 57.2 °F 57.2 °F 100% 30.09 in 5.0 mi Calm Calm - N/A   Overcast
12:55 AM 57.4 °F 57.4 °F 100% 30.09 in 5.0 mi Calm Calm - N/A   Overcast
1:15 AM 58.1 °F 58.1 °F 100% 30.09 in 4.0 mi Calm Calm - N/A   Overcast
1:35 AM 58.5 °F 58.5 °F 100% 30.09 in 1.0 mi Calm Calm - N/A   Overcast
1:55 AM 58.8 °F 58.8 °F 100% 30.09 in 0.5 mi Calm Calm - N/A Fog Fog
2:15 AM 59.0 °F 59.0 °F 100% 30.09 in 0.2 mi Calm Calm - N/A Fog Fog
2:35 AM 59.0 °F 59.0 °F 100% 30.09 in 0.2 mi Calm Calm - N/A Fog Fog
2:55 AM 59.0 °F 59.0 °F 100% 30.09 in 0.2 mi Calm Calm - N/A Fog Fog
3:15 AM 59.2 °F 59.2 °F 100% 30.09 in 0.5 mi Calm Calm - N/A Fog Fog
3:35 AM 59.2 °F 59.2 °F 100% 30.09 in 0.2 mi Calm Calm - N/A Fog Fog
3:55 AM 59.2 °F 59.2 °F 100% 30.09 in 0.5 mi Calm Calm - N/A Fog Fog
4:15 AM 59.0 °F 59.0 °F 100% 30.08 in 0.5 mi Calm Calm - N/A Fog Fog
4:35 AM 59.0 °F 59.0 °F 100% 30.09 in 0.2 mi Calm Calm - N/A Fog Fog
4:55 AM 59.2 °F 59.2 °F 100% 30.09 in 0.5 mi Calm Calm - N/A Fog Fog
5:15 AM 59.2 °F 59.2 °F 100% 30.09 in 0.2 mi Calm Calm - N/A Fog Fog
5:35 AM 59.4 °F 59.4 °F 100% 30.10 in 0.2 mi Calm Calm - N/A Fog Fog
5:55 AM 59.5 °F 59.5 °F 100% 30.10 in 0.2 mi Calm Calm - N/A Fog Fog
6:15 AM 59.7 °F 59.7 °F 100% 30.10 in 0.2 mi Calm Calm - N/A Fog Fog
6:35 AM 59.7 °F 59.7 °F 100% 30.11 in 0.2 mi Calm Calm - N/A Fog Fog
7:15 AM 59.9 °F 59.9 °F 100% 30.12 in 0.2 mi Calm Calm - N/A Fog Fog
7:35 AM 59.9 °F 59.9 °F 100% 30.12 in 0.5 mi Calm Calm - N/A Fog Fog
7:55 AM 59.9 °F 59.9 °F 100% 30.13 in 0.2 mi Calm Calm - N/A Fog Fog
8:15 AM 60.6 °F 60.6 °F 100% 30.13 in 0.2 mi Calm Calm - N/A Fog Fog
8:35 AM 61.7 °F 61.7 °F 100% 30.14 in 1.0 mi Calm Calm - N/A   Overcast
8:55 AM 62.1 °F 62.1 °F 100% 30.14 in 0.8 mi Calm Calm - N/A   Overcast
9:15 AM 63.1 °F 63.1 °F 100% 30.14 in 0.5 mi Calm Calm - N/A Fog Fog
9:35 AM 63.7 °F 63.7 °F 100% 30.14 in 2.0 mi Calm Calm - N/A   Overcast
9:55 AM 64.6 °F 64.6 °F 100% 30.14 in 4.0 mi Calm Calm - N/A   Overcast
10:35 AM 66.2 °F 66.2 °F 100% 30.14 in 7.0 mi Calm Calm - N/A   Overcast
10:55 AM 68.0 °F 68.0 °F 100% 30.14 in 10.0 mi Calm Calm - N/A   Mostly Cloudy
11:15 AM 68.9 °F 68.9 °F 100% 30.13 in 10.0 mi SSW 5.8 mph - N/A   Overcast
11:35 AM 68.9 °F 68.9 °F 100% 30.12 in 10.0 mi SSW 4.6 mph - N/A   Overcast
11:55 AM 69.4 °F 69.4 °F 100% 30.11 in 10.0 mi SW 3.5 mph - N/A   Overcast
12:15 PM 72.5 °F 68.2 °F 86% 30.10 in 10.0 mi Calm Calm - N/A   Overcast
12:35 PM 74.5 °F 68.4 °F 81% 30.09 in 10.0 mi Calm Calm - N/A   Overcast
12:55 PM 73.8 °F 68.0 °F 82% 30.08 in 10.0 mi SW 3.5 mph - N/A   Mostly Cloudy
1:15 PM 75.2 °F 68.0 °F 78% 30.07 in 10.0 mi SSW 4.6 mph - N/A   Mostly Cloudy
1:35 PM 74.7 °F 67.5 °F 78% 30.06 in 10.0 mi South 3.5 mph - N/A   Mostly Cloudy
1:55 PM 74.5 °F 68.0 °F 80% 30.06 in 10.0 mi Calm Calm - N/A   Overcast
2:15 PM 75.0 °F 68.0 °F 79% 30.05 in 10.0 mi Calm Calm - N/A   Overcast
2:35 PM 75.7 °F 68.0 °F 77% 30.06 in 10.0 mi SSW 4.6 mph - N/A   Mostly Cloudy
2:55 PM 74.7 °F 67.3 °F 78% 30.06 in 10.0 mi Calm Calm - N/A   Overcast
3:15 PM 74.7 °F 67.6 °F 79% 30.06 in 10.0 mi Calm Calm - N/A   Overcast
3:35 PM 74.3 °F 67.6 °F 80% 30.06 in 10.0 mi Calm Calm - N/A   Overcast
3:55 PM 73.8 °F 67.6 °F 81% 30.06 in 10.0 mi SSW 3.5 mph - N/A   Overcast
4:15 PM 73.6 °F 68.0 °F 83% 30.05 in 10.0 mi Calm Calm - N/A   Overcast
4:35 PM 73.4 °F 68.0 °F 83% 30.05 in 10.0 mi Calm Calm - N/A   Overcast
4:55 PM 73.0 °F 68.2 °F 85% 30.05 in 10.0 mi Calm Calm - N/A   Overcast
5:15 PM 72.5 °F 68.0 °F 86% 30.05 in 10.0 mi Calm Calm - N/A   Overcast
5:35 PM 71.6 °F 67.5 °F 87% 30.05 in 10.0 mi Calm Calm - N/A   Overcast
5:55 PM 70.9 °F 67.5 °F 89% 30.06 in 10.0 mi Calm Calm - N/A   Overcast
6:15 PM 69.8 °F 66.6 °F 89% 30.05 in 10.0 mi Calm Calm - N/A   Mostly Cloudy
6:35 PM 68.0 °F 66.0 °F 93% 30.05 in 7.0 mi Calm Calm - N/A   Mostly Cloudy
6:55 PM 68.2 °F 66.4 °F 94% 30.05 in 7.0 mi Calm Calm - N/A   Overcast
7:15 PM 67.3 °F 66.0 °F 96% 30.05 in 10.0 mi Calm Calm - N/A   Overcast
7:35 PM 67.3 °F 66.2 °F 96% 30.05 in 10.0 mi Calm Calm - N/A   Overcast
7:55 PM 67.5 °F 66.2 °F 96% 30.05 in 10.0 mi Calm Calm - N/A   Overcast
8:15 PM 67.5 °F 66.4 °F 96% 30.04 in 10.0 mi Calm Calm - N/A   Overcast
8:35 PM 67.6 °F 66.2 °F 95% 30.05 in 10.0 mi Calm Calm - N/A   Overcast
8:55 PM 66.7 °F 65.7 °F 96% 30.04 in 10.0 mi Calm Calm - N/A   Overcast
9:15 PM 67.3 °F 66.2 °F 96% 30.04 in 10.0 mi Calm Calm - N/A   Overcast
9:35 PM 67.3 °F 66.2 °F 96% 30.04 in 10.0 mi Calm Calm - N/A   Mostly Cloudy
9:55 PM 65.7 °F 65.1 °F 98% 30.03 in 7.0 mi Calm Calm - N/A   Scattered Clouds
10:15 PM 64.8 °F 64.4 °F 99% 30.03 in 7.0 mi Calm Calm - N/A   Scattered Clouds
10:35 PM 64.2 °F 64.2 °F 100% 30.03 in 5.0 mi Calm Calm - N/A   Scattered Clouds
10:55 PM 63.9 °F 63.9 °F 100% 30.03 in 5.0 mi Calm Calm - N/A   Mostly Cloudy
11:15 PM 64.8 °F 64.8 °F 100% 30.02 in 7.0 mi Calm Calm - N/A   Overcast
11:35 PM 64.4 °F 64.4 °F 100% 30.01 in 5.0 mi Calm Calm - N/A   Overcast
11:55 PM 64.4 °F 64.4 °F 100% 30.00 in 7.0 mi Calm Calm - N/A   Overcast